Miscellaneous Local Product
Issued by NWS Hastings, NE

Home | Current Version | Previous Version | Text Only | Print | Product List | Glossary Off
Versions: 1 2 3 4 5 6 7 8 9 10 11 12 13 14 15 16 17 18 19 20 21 22 23 24 25 26 27 28 29 30 31 32 33 34 35 36 37 38 39 40 41 42 43 44 45 46 47 48 49 50

302
AXUS43 KGID 211802
MISGRI

GID CWA HOURLY WEATHER ROUNDUP
NATIONAL WEATHER SERVICE HASTINGS NE
100 PM CDT FRI JUL 21 2017

NOTE: "FAIR" INDICATES FEW OR NO CLOUDS BELOW 12,000 FEET WITH NO
SIGNIFICANT WEATHER AND/OR OBSTRUCTIONS TO VISIBILITY.

...SOUTH CENTRAL NEBRASKA...

CITY           SKY/WX    TMP DP  RH WIND       PRES   REMARKS
GRAND ISLAND   SUNNY     91  71  51 SW14      29.83S HX  97
HASTINGS       SUNNY     89  68  49 S15       29.85S HX  93
KEARNEY        SUNNY     89  71  55 SW13      29.84F HX  95
ORD            SUNNY     94  71  47 MISG      29.81S HX 101
YORK           SUNNY     90  73  58 S14       29.82S HX  98
AURORA         SUNNY     89  70  54 SW13      29.82F HX  94
LEXINGTON      SUNNY     89  75  62 CALM      29.86F HX  99
HOLDREGE       SUNNY     89  66  47 S8        29.86S HX  91
HEBRON         SUNNY     95  70  43 S15G22    29.83S HX 101

...NEBRASKA PANHANDLE...

CITY           SKY/WX    TMP DP  RH WIND       PRES   REMARKS
CHADRON        SUNNY     93  51  23 NW16      29.93F HX  90
ALLIANCE       SUNNY     91  53  27 NW15G22   29.99S
SCOTTSBLUFF    SUNNY     89  58  34 W7        30.01F
SIDNEY         SUNNY     94  48  20 N7        30.05S HX  90

...WESTERN AND NORTH CENTRAL NEBRASKA...

CITY           SKY/WX    TMP DP  RH WIND       PRES   REMARKS
VALENTINE      CLOUDY    96  65  35 N8        29.85S HX  98
AINSWORTH      SUNNY     92  73  52 W6        29.85S HX 100
ONEILL         SUNNY     87  71  59 N5        29.83S HX  92
BROKEN BOW     SUNNY     96  73  47 W8        29.85S HX 105
IMPERIAL       SUNNY     96  54  24 NW8       29.95F HX  94
NORTH PLATTE   SUNNY     95  68  41 W8        29.89S HX  99
MCCOOK         SUNNY     98  69  38 CALM      29.87F HX 104

...EASTERN NEBRASKA...

CITY           SKY/WX    TMP DP  RH WIND       PRES   REMARKS
NORFOLK        CLOUDY    91  67  44 SE12      29.79F HX  94
SO SIOUX CITY  PTSUNNY   87  76  69 E17       29.78F HX  97
TEKAMAH        SUNNY     92  72  51 S9        29.78F HX  99
COLUMBUS       SUNNY     90  71  53 S10       29.81S HX  96
ALBION         SUNNY     93  71  48 S9        29.81S HX 100
OMAHA EPPLEY   MOSUNNY   97  71  42 S10       29.80S HX 104
OFFUTT AFB     SUNNY     95  74  50 S13       29.80F HX 104
MILLARD        SUNNY     97  75  49 S9        29.80F HX 109
LINCOLN        SUNNY     94  72  48 S15       29.80F HX 102
NEBRASKA CITY  SUNNY     92  77  61 S13       29.83S HX 106
BEATRICE       SUNNY     98  72  43 S16G23    29.82F HX 106
FALLS CITY     NOT AVBL

...NORTHERN KANSAS...

CITY           SKY/WX    TMP DP  RH WIND       PRES   REMARKS
GOODLAND       SUNNY     97  59  28 VRB5      29.96F HX  96
HILL CITY      SUNNY    103  59  23 SW7       29.86F HX 103
NORTON         CLEAR     99  54  22 SW8       29.86S HX  96
PHILLIPSBURG   SUNNY    100  59  25 S10G16    29.84F HX 100
SMITH CENTER   MOSUNNY   95  66  38 S13G18    29.84F HX  98
HAYS           SUNNY    101  63  28 S15       29.87F HX 103
RUSSELL        SUNNY    101  63  28 S18G25    29.86F HX 103
CONCORDIA      SUNNY    100  67  33 S16       29.84F HX 105
SALINA         SUNNY    103  65  29 S21G30    29.87S HX 106
TOPEKA         SUNNY     97  74  47 S15G21    29.89F HX 108



USA.gov is the U.S. government's official web portal to all federal, state and local government web resources and services.